| time (UTC) | temp F | wind direction | speed MPH | gust MPH | rain 1hr in | rain 24hr in | rain mn in | humidity % | barometer mb |
| 20260502130139 | 47 | 140 | 0.0 | 1.0 | 0.00 | 0.00 | 0.00 | 92 | 1013.8 |
| 20260502123122 | 48 | 98 | 0.0 | 3.0 | 0.00 | 0.00 | 0.00 | 93 | 1014.2 |
| 20260502122143 | 47 | 113 | 1.0 | 2.0 | 0.00 | 0.00 | 0.00 | 94 | 1013.9 |
| 20260502121130 | 47 | 0.0 | 0.0 | 0.00 | 0.00 | 0.00 | 95 | 1013.9 | |
| 20260502120120 | 46 | 0.0 | 0.0 | 0.00 | 0.00 | 0.00 | 95 | 1014.2 | |
| 20260502115121 | 46 | 110 | 0.0 | 1.0 | 0.00 | 0.00 | 0.00 | 96 | 1014.2 |
| 20260502114122 | 46 | 0.0 | 0.0 | 0.00 | 0.00 | 0.00 | 96 | 1014.2 | |
| 20260502113116 | 46 | 0.0 | 0.0 | 0.00 | 0.00 | 0.00 | 96 | 1014.0 | |
| 20260502112125 | 45 | 0.0 | 0.0 | 0.00 | 0.00 | 0.00 | 97 | 1013.9 | |
| 20260502111131 | 45 | 0.0 | 0.0 | 0.00 | 0.00 | 0.00 | 96 | 1014.3 | |
| 20260502110121 | 45 | 0.0 | 0.0 | 0.00 | 0.00 | 0.00 | 96 | 1014.4 | |
| 20260502105123 | 45 | 0.0 | 0.0 | 0.00 | 0.00 | 0.00 | 96 | 1014.6 | |
| 20260502104123 | 45 | 0.0 | 0.0 | 0.00 | 0.00 | 0.00 | 96 | 1014.4 | |
| 20260502103125 | 45 | 0.0 | 0.0 | 0.00 | 0.00 | 0.00 | 96 | 1014.1 | |
| 20260502102125 | 45 | 0.0 | 0.0 | 0.00 | 0.00 | 0.00 | 96 | 1013.7 | |
| 20260502101118 | 45 | 0.0 | 0.0 | 0.00 | 0.00 | 0.00 | 96 | 1013.8 | |
| 20260502100122 | 45 | 0.0 | 0.0 | 0.00 | 0.00 | 0.00 | 95 | 1014.0 | |
| 20260502091124 | 45 | 0.0 | 0.0 | 0.00 | 0.00 | 0.00 | 94 | 1013.7 | |
| 20260502090119 | 45 | 0.0 | 0.0 | 0.00 | 0.00 | 0.00 | 94 | 1013.8 | |
| 20260502071146 | 46 | 0.0 | 0.0 | 0.00 | 0.00 | 0.00 | 90 | 1013.3 | |
| 20260502070141 | 47 | 0.0 | 0.0 | 0.00 | 0.00 | 0.00 | 88 | 1013.7 | |
| 20260502065120 | 47 | 0.0 | 0.0 | 0.00 | 0.00 | 0.00 | 87 | 1013.6 | |
| 20260502064115 | 47 | 0.0 | 0.0 | 0.00 | 0.00 | 0.00 | 86 | 1013.5 | |
| 20260502063117 | 46 | 0.0 | 0.0 | 0.00 | 0.00 | 0.00 | 87 | 1013.7 | |
| 20260502062119 | 47 | 0.0 | 0.0 | 0.00 | 0.00 | 0.00 | 88 | 1013.8 | |
| 20260502061141 | 47 | 0.0 | 0.0 | 0.00 | 0.00 | 0.00 | 84 | 1013.6 | |
| 20260502060120 | 47 | 0.0 | 0.0 | 0.00 | 0.00 | 0.00 | 84 | 1013.6 | |
| 20260502055124 | 48 | 0.0 | 0.0 | 0.00 | 0.00 | 0.00 | 82 | 1013.8 | |
| 20260502054116 | 48 | 0.0 | 0.0 | 0.00 | 0.00 | 0.00 | 79 | 1013.5 | |
| 20260502053117 | 49 | 0.0 | 0.0 | 0.00 | 0.00 | 0.00 | 75 | 1013.5 | |
| 20260502052125 | 49 | 0.0 | 0.0 | 0.00 | 0.00 | 0.00 | 69 | 1013.7 | |
| 20260502051204 | 49 | 0.0 | 0.0 | 0.00 | 0.00 | 0.00 | 70 | 1014.0 | |
| 20260502050118 | 49 | 0.0 | 0.0 | 0.00 | 0.00 | 0.00 | 70 | 1014.0 | |
| 20260502045116 | 49 | 0.0 | 0.0 | 0.00 | 0.00 | 0.00 | 69 | 1014.3 | |
| 20260502044117 | 48 | 0.0 | 0.0 | 0.00 | 0.00 | 0.00 | 70 | 1014.0 | |
| 20260502043118 | 48 | 0.0 | 0.0 | 0.00 | 0.00 | 0.00 | 71 | 1014.0 | |
| 20260502042121 | 48 | 0.0 | 0.0 | 0.00 | 0.00 | 0.00 | 72 | 1013.8 | |
| 20260502041121 | 48 | 0.0 | 0.0 | 0.00 | 0.00 | 0.00 | 72 | 1013.8 | |
| 20260502040116 | 48 | 0.0 | 0.0 | 0.00 | 0.00 | 0.00 | 71 | 1013.7 | |
| 20260502035138 | 48 | 0.0 | 0.0 | 0.00 | 0.00 | 0.00 | 73 | 1014.0 | |
| 20260502034118 | 49 | 0.0 | 0.0 | 0.00 | 0.00 | 0.00 | 71 | 1014.0 | |
| 20260502033120 | 49 | 0.0 | 0.0 | 0.00 | 0.00 | 0.00 | 64 | 1014.0 | |
| 20260502032116 | 49 | 0.0 | 0.0 | 0.00 | 0.00 | 0.00 | 65 | 1014.0 | |
| 20260502031122 | 49 | 0.0 | 0.0 | 0.00 | 0.00 | 0.00 | 65 | 1014.3 | |
| 20260502030128 | 49 | 0.0 | 0.0 | 0.00 | 0.00 | 0.00 | 64 | 1014.0 | |
| 20260502025118 | 49 | 0.0 | 0.0 | 0.00 | 0.00 | 0.00 | 58 | 1014.0 | |
| 20260502024119 | 50 | 0.0 | 0.0 | 0.00 | 0.00 | 0.00 | 60 | 1014.1 | |
| 20260502023120 | 50 | 0.0 | 0.0 | 0.00 | 0.00 | 0.00 | 59 | 1014.1 | |
| 20260502022125 | 50 | 0.0 | 0.0 | 0.00 | 0.00 | 0.00 | 58 | 1014.1 | |
| 20260502021121 | 50 | 0.0 | 0.0 | 0.00 | 0.00 | 0.00 | 59 | 1014.1 | |
| 20260502020150 | 51 | 0.0 | 0.0 | 0.00 | 0.00 | 0.00 | 56 | 1014.2 | |
| 20260502015120 | 51 | 0.0 | 0.0 | 0.00 | 0.00 | 0.00 | 58 | 1014.0 | |
| 20260502014121 | 51 | 0.0 | 0.0 | 0.00 | 0.00 | 0.00 | 55 | 1013.8 | |
| 20260502013125 | 52 | 0.0 | 0.0 | 0.00 | 0.00 | 0.00 | 54 | 1013.7 | |
| 20260502012125 | 53 | 0.0 | 0.0 | 0.00 | 0.00 | 0.00 | 52 | 1013.8 | |
| 20260502011124 | 53 | 0.0 | 0.0 | 0.00 | 0.00 | 0.00 | 52 | 1013.6 | |
| 20260502010131 | 53 | 0.0 | 0.0 | 0.00 | 0.00 | 0.00 | 53 | 1013.5 | |
| 20260502005201 | 53 | 0.0 | 0.0 | 0.00 | 0.00 | 0.00 | 50 | 1013.6 | |
| 20260502004122 | 54 | 0.0 | 0.0 | 0.00 | 0.00 | 0.00 | 54 | 1013.4 | |
| 20260502003118 | 54 | 0.0 | 0.0 | 0.00 | 0.00 | 0.00 | 50 | 1013.3 | |
| 20260502002124 | 54 | 0.0 | 0.0 | 0.00 | 0.00 | 0.00 | 50 | 1013.2 | |
| 20260502001123 | 55 | 0.0 | 0.0 | 0.00 | 0.00 | 0.00 | 48 | 1013.0 | |
| 20260502000132 | 55 | 0.0 | 0.0 | 0.00 | 0.00 | 0.00 | 47 | 1012.8 | |
| 20260501235122 | 55 | 0.0 | 0.0 | 0.00 | 0.00 | 0.00 | 48 | 1012.6 | |
| 20260501234123 | 56 | 0.0 | 0.0 | 0.00 | 0.00 | 0.00 | 46 | 1012.5 | |
| 20260501233124 | 56 | 0.0 | 0.0 | 0.00 | 0.00 | 0.00 | 41 | 1012.4 | |
| 20260501232125 | 56 | 0.0 | 0.0 | 0.00 | 0.00 | 0.00 | 43 | 1012.4 | |
| 20260501231126 | 57 | 0.0 | 0.0 | 0.00 | 0.00 | 0.00 | 42 | 1012.3 | |
| 20260501230116 | 57 | 0.0 | 0.0 | 0.00 | 0.00 | 0.00 | 39 | 1012.2 | |
| 20260501225123 | 57 | 0.0 | 0.0 | 0.00 | 0.00 | 0.00 | 39 | 1012.2 | |
| 20260501224124 | 58 | 176 | 1.0 | 2.0 | 0.00 | 0.00 | 0.00 | 37 | 1012.1 |
| 20260501223146 | 59 | 140 | 1.0 | 3.0 | 0.00 | 0.00 | 0.00 | 35 | 1012.0 |
| 20260501222125 | 58 | 115 | 0.0 | 2.0 | 0.00 | 0.00 | 0.00 | 36 | 1012.1 |
| 20260501221145 | 59 | 0.0 | 1.0 | 0.00 | 0.00 | 0.00 | 35 | 1012.1 | |
| 20260501220117 | 61 | 309 | 2.0 | 2.0 | 0.00 | 0.00 | 0.00 | 33 | 1012.1 |
| 20260501215124 | 61 | 170 | 0.0 | 2.0 | 0.00 | 0.00 | 0.00 | 33 | 1012.1 |
| 20260501214125 | 62 | 313 | 2.0 | 4.0 | 0.00 | 0.00 | 0.00 | 33 | 1012.3 |
| 20260501213116 | 61 | 211 | 1.0 | 2.0 | 0.00 | 0.00 | 0.00 | 32 | 1012.0 |
| 20260501212116 | 60 | 114 | 1.0 | 6.0 | 0.00 | 0.00 | 0.00 | 34 | 1012.1 |
| 20260501211116 | 60 | 155 | 0.0 | 2.0 | 0.00 | 0.00 | 0.00 | 34 | 1012.1 |
| 20260501210119 | 61 | 239 | 2.0 | 4.0 | 0.00 | 0.00 | 0.00 | 34 | 1012.1 |
| 20260501205125 | 60 | 2 | 0.0 | 2.0 | 0.00 | 0.00 | 0.00 | 33 | 1012.1 |
| 20260501204146 | 59 | 176 | 1.0 | 2.0 | 0.00 | 0.00 | 0.00 | 35 | 1011.9 |
| 20260501203117 | 61 | 184 | 1.0 | 3.0 | 0.00 | 0.00 | 0.00 | 34 | 1012.4 |
| 20260501202117 | 62 | 199 | 2.0 | 3.0 | 0.00 | 0.00 | 0.00 | 32 | 1012.0 |
| 20260501201137 | 60 | 144 | 2.0 | 4.0 | 0.00 | 0.00 | 0.00 | 35 | 1012.0 |
| 20260501200120 | 61 | 214 | 2.0 | 3.0 | 0.00 | 0.00 | 0.00 | 34 | 1012.1 |
| 20260501195126 | 59 | 310 | 2.0 | 3.0 | 0.00 | 0.00 | 0.00 | 35 | 1012.2 |
| 20260501194116 | 60 | 341 | 2.0 | 3.0 | 0.00 | 0.00 | 0.00 | 33 | 1012.2 |
| 20260501193142 | 60 | 180 | 1.0 | 2.0 | 0.00 | 0.00 | 0.00 | 35 | 1012.1 |
| 20260501192118 | 60 | 176 | 1.0 | 6.0 | 0.00 | 0.00 | 0.00 | 34 | 1012.3 |
| 20260501191118 | 60 | 189 | 2.0 | 4.0 | 0.00 | 0.00 | 0.00 | 34 | 1012.4 |
| 20260501190126 | 60 | 205 | 3.0 | 4.0 | 0.00 | 0.00 | 0.00 | 33 | 1012.6 |
| 20260501185145 | 60 | 150 | 4.0 | 6.0 | 0.00 | 0.00 | 0.00 | 35 | 1012.6 |
| 20260501184125 | 59 | 303 | 3.0 | 4.0 | 0.00 | 0.00 | 0.00 | 34 | 1012.8 |
| 20260501183118 | 59 | 313 | 5.0 | 8.0 | 0.00 | 0.00 | 0.00 | 34 | 1013.1 |
| 20260501182118 | 59 | 194 | 2.0 | 7.0 | 0.00 | 0.00 | 0.00 | 34 | 1013.0 |
| 20260501181119 | 60 | 182 | 2.0 | 7.0 | 0.00 | 0.00 | 0.00 | 35 | 1012.9 |
| 20260501180121 | 60 | 135 | 2.0 | 4.0 | 0.00 | 0.00 | 0.00 | 34 | 1012.8 |
| 20260501175118 | 59 | 13 | 2.0 | 4.0 | 0.00 | 0.00 | 0.00 | 36 | 1013.0 |
| 20260501174124 | 60 | 143 | 1.0 | 4.0 | 0.00 | 0.00 | 0.00 | 36 | 1013.1 |
| 20260501173119 | 59 | 173 | 2.0 | 7.0 | 0.00 | 0.00 | 0.00 | 34 | 1013.1 |
| 20260501172120 | 58 | 180 | 2.0 | 3.0 | 0.00 | 0.00 | 0.00 | 36 | 1013.0 |
| 20260501171120 | 59 | 200 | 2.0 | 8.0 | 0.00 | 0.00 | 0.00 | 32 | 1013.1 |
| 20260501170141 | 58 | 166 | 2.0 | 4.0 | 0.00 | 0.00 | 0.00 | 35 | 1013.2 |
| 20260501165136 | 57 | 113 | 1.0 | 2.0 | 0.00 | 0.00 | 0.00 | 35 | 1013.1 |
| 20260501164116 | 59 | 190 | 2.0 | 4.0 | 0.00 | 0.00 | 0.00 | 35 | 1013.1 |
| 20260501163120 | 58 | 188 | 3.0 | 11.0 | 0.00 | 0.00 | 0.00 | 36 | 1013.2 |
| 20260501162121 | 57 | 269 | 2.0 | 4.0 | 0.00 | 0.00 | 0.00 | 37 | 1013.2 |
| 20260501161118 | 56 | 302 | 4.0 | 9.0 | 0.00 | 0.00 | 0.00 | 39 | 1013.4 |
| 20260501160126 | 56 | 326 | 4.0 | 9.0 | 0.00 | 0.00 | 0.00 | 37 | 1013.4 |
| 20260501155125 | 57 | 296 | 4.0 | 8.0 | 0.00 | 0.00 | 0.00 | 37 | 1013.5 |
| 20260501154120 | 57 | 144 | 1.0 | 3.0 | 0.00 | 0.00 | 0.00 | 40 | 1013.6 |
| 20260501153141 | 55 | 157 | 2.0 | 3.0 | 0.00 | 0.00 | 0.00 | 41 | 1013.6 |
| 20260501152121 | 54 | 325 | 4.0 | 6.0 | 0.00 | 0.00 | 0.00 | 42 | 1013.6 |
| 20260501151120 | 54 | 147 | 1.0 | 4.0 | 0.00 | 0.00 | 0.00 | 42 | 1013.7 |
| 20260501150136 | 55 | 10 | 2.0 | 6.0 | 0.00 | 0.00 | 0.00 | 45 | 1013.8 |
| 20260501145151 | 53 | 309 | 2.0 | 7.0 | 0.00 | 0.00 | 0.00 | 44 | 1013.6 |
| 20260501144124 | 53 | 187 | 3.0 | 6.0 | 0.00 | 0.00 | 0.00 | 45 | 1013.7 |
| 20260501143122 | 52 | 355 | 2.0 | 4.0 | 0.00 | 0.00 | 0.00 | 49 | 1013.8 |
| 20260501142123 | 51 | 181 | 1.0 | 2.0 | 0.00 | 0.00 | 0.00 | 51 | 1013.8 |
| 20260501141142 | 52 | 179 | 3.0 | 3.0 | 0.00 | 0.00 | 0.00 | 49 | 1013.7 |
| 20260501140138 | 51 | 230 | 1.0 | 2.0 | 0.00 | 0.00 | 0.00 | 51 | 1013.6 |
| 20260501135132 | 51 | 335 | 3.0 | 6.0 | 0.00 | 0.00 | 0.00 | 53 | 1013.8 |